ICEYE X1 (43114 NORAD) Tracking and Keplerian Element Data

This shows tracking and keplerian element data for the satellite.

Feedback or suggestion? Click here.




ElementValue
Catalog43114
NameICEYE X1
Epoch Orbit432
Epoch Day40.67835912
Epoch Year2018
RAAN102.9053
Inclination97.5515
Eccentricity0.0010926
Argument of Perigee161.4041
Mean Anonmoly198.7596
Mean Motion15.21722462
Decay Rate4.41E-06
L11 43114U 18004D 18040.67835912 .00000441 00000-0 22611-4 0 9995
L22 43114 97.5515 102.9053 0010926 161.4041 198.7596 15.21722462 4328

Live tracking and technical data element details for ICEYE X1 (NORAD 43114). ICEYE X1 can be tracked NOW for your location showing map with azimuth and elevation plus other details from your city location.

Track the satellite on the map from your city or location and see movement details for azimuth, elevation, latitude, longitude, range, height, and movement on the map or in text.







IsCatalogInMostPopularTable: catalog: 43114, numindb: 134
Update: records affected: 1



GetName: 43114 ICEYE X1

Hit Count: updated at: Mon, 19 Nov 2018 13:49:41 GMT